Weather History for KLXT - December, 2012

Change the Weather History Date:

Saturday, December 8, 2012

  Actual Average (KOJC) Record (KOJC)
Temperature  
Mean Temperature 38 °F 34 °F  
Max Temperature 43 °F 43 °F 67 °F (1966)
Min Temperature 33 °F 26 °F 1 °F (2005)
Degree Days  
Heating Degree Days 27 31  
Month to date heating degree days 237  
Since 1 July heating degree days 1192  
Cooling Degree Days 0 0  
Month to date cooling degree days 0  
Year to date cooling degree days 1349  
Moisture  
Dew Point 35 °F    
Average Humidity 91    
Maximum Humidity 100    
Minimum Humidity 70    
Precipitation  
Precipitation 0.04 in 0.05 in 1.41 in (1980)
Month to date precipitation 0.43  
Year to date precipitation 38.83  
Sea Level Pressure  
Sea Level Pressure 29.96 in    
Wind  
Wind Speed 6 mph (NE)    
Max Wind Speed 10 mph    
Max Gust Speed -    
Visibility 3 miles    
Events Fog , Rain    
T = Trace of Precipitation, MM = Missing Value Source: NWS Daily Summary

Daily Weather History Graph

Daily Weather History Graph

Search for Another Location

Airport or City:

Trip Planner

Search our weather history database for the weather conditions in past years. The results will help you decide how hot, cold, wet, or windy it might be!

Date:

Astronomy

Dec. 08, 2012 Rise Set
Actual Time 7:24 AM CST 4:55 PM CST
Civil Twilight 6:54 AM CST 5:24 PM CST
Nautical Twilight 6:20 AM CST 5:58 PM CST
Astronomical Twilight 5:48 AM CST 6:30 PM CST
Moon 1:51 AM CST (12/8) 1:23 PM CST (12/8)
Length of Visible Light 10h 30m
Length of Day
9h 31m
Waning Crescent, 28% of the Moon is Illuminated
Dec 8
Waning Crescent
Dec 13
New
Dec 19
First Quarter
Dec 28
Full
Jan 4
Last Quarter

Hourly Weather History & Observations

Time (CST) Temp. Windchill Dew Point Humidity Pressure Visibility Wind Dir Wind Speed Gust Speed Precip Events Conditions
12:53 AM 43.0 °F 39.5 °F 39.9 °F 89% 29.95 in 7.0 mi North 5.8 mph - N/A   Overcast
1:45 AM 41.0 °F 36.4 °F 39.2 °F 93% 29.94 in 7.0 mi North 6.9 mph - N/A   Mostly Cloudy
2:53 AM 37.9 °F 33.5 °F 36.0 °F 93% 29.97 in 5.0 mi North 5.8 mph - N/A   Scattered Clouds
3:53 AM 36.0 °F 31.1 °F 35.1 °F 97% 29.97 in 2.0 mi NNE 5.8 mph - N/A   Clear
4:01 AM 35.6 °F 30.7 °F 33.8 °F 93% 29.95 in 1.2 mi North 5.8 mph - N/A   Clear
4:21 AM 35.6 °F 31.7 °F 35.6 °F 100% 29.95 in 2.5 mi NNE 4.6 mph - N/A   Scattered Clouds
4:30 AM 35.6 °F 32.8 °F 35.6 °F 100% 29.95 in 2.0 mi NNE 3.5 mph - N/A   Mostly Cloudy
4:42 AM 35.6 °F 32.8 °F 35.6 °F 100% 29.96 in 1.8 mi NNE 3.5 mph - N/A   Overcast
5:03 AM 37.4 °F - 35.6 °F 93% 29.96 in 2.0 mi Calm Calm - N/A   Overcast
5:22 AM 35.6 °F 30.7 °F 33.8 °F 93% 29.96 in 1.8 mi North 5.8 mph - N/A   Overcast
5:29 AM 35.6 °F 31.7 °F 33.8 °F 93% 29.96 in 2.0 mi NNE 4.6 mph - N/A   Mostly Cloudy
5:40 AM 35.6 °F 31.7 °F 33.8 °F 93% 29.96 in 3.0 mi NE 4.6 mph - N/A   Scattered Clouds
5:53 AM 34.0 °F 29.8 °F 33.1 °F 96% 29.99 in 2.0 mi NNE 4.6 mph - N/A   Partly Cloudy
6:00 AM 35.6 °F 31.7 °F 33.8 °F 93% 29.97 in 1.0 mi NNE 4.6 mph - N/A   Scattered Clouds
6:05 AM 35.6 °F 30.7 °F 33.8 °F 93% 29.96 in 1.2 mi NE 5.8 mph - N/A   Mostly Cloudy
6:15 AM 33.8 °F 29.6 °F 33.8 °F 100% 29.97 in 0.5 mi NNE 4.6 mph - N/A Fog Fog
6:22 AM 33.8 °F 29.6 °F 33.8 °F 100% 29.97 in 0.2 mi NNE 4.6 mph - N/A Fog Fog
6:40 AM 35.6 °F 30.7 °F 33.8 °F 93% 29.97 in 0.5 mi NNE 5.8 mph - N/A Fog Fog
6:50 AM 35.6 °F 31.7 °F 33.8 °F 93% 29.98 in 0.2 mi NNE 4.6 mph - N/A Fog Fog
6:53 AM 35.1 °F 32.2 °F 34.0 °F 96% 30.00 in 0.2 mi NNE 3.5 mph - N/A Fog Fog
7:13 AM 35.6 °F 31.7 °F 33.8 °F 93% 29.98 in 0.2 mi NE 4.6 mph - N/A Fog Fog
7:48 AM 35.6 °F 32.8 °F 33.8 °F 93% 29.99 in 0.2 mi NE 3.5 mph - N/A Fog Fog
7:53 AM 35.1 °F 31.0 °F 34.0 °F 96% 30.01 in 0.2 mi NE 4.6 mph - N/A Fog Fog
8:17 AM 35.6 °F 29.9 °F 33.8 °F 93% 30.00 in 0.5 mi East 6.9 mph - N/A Fog Fog
8:33 AM 35.6 °F 29.9 °F 33.8 °F 93% 30.00 in 0.2 mi East 6.9 mph - N/A Fog Fog
8:53 AM 35.1 °F 29.3 °F 34.0 °F 96% 30.01 in 0.2 mi NE 6.9 mph - N/A Fog Fog
9:30 AM 35.6 °F 28.6 °F 33.8 °F 93% 29.99 in 0.5 mi ENE 9.2 mph - N/A Fog Fog
9:44 AM 35.6 °F 29.2 °F 35.6 °F 100% 29.99 in 1.2 mi ENE 8.1 mph - N/A   Overcast
9:53 AM 36.0 °F 30.3 °F 35.1 °F 97% 30.01 in 1.8 mi ENE 6.9 mph - N/A   Overcast
10:02 AM 35.6 °F 29.2 °F 35.6 °F 100% 30.00 in 2.5 mi ENE 8.1 mph - N/A   Overcast
10:04 AM 37.4 °F 31.4 °F 35.6 °F 93% 30.00 in 3.0 mi NE 8.1 mph - N/A   Overcast
10:21 AM 37.4 °F 32.8 °F 35.6 °F 93% 30.00 in 4.0 mi ENE 5.8 mph - N/A   Overcast
10:53 AM 39.9 °F 34.5 °F 37.0 °F 89% 30.02 in 6.0 mi NE 8.1 mph - N/A   Overcast
11:05 AM 39.2 °F 32.5 °F 35.6 °F 87% 30.00 in 6.0 mi ENE 10.4 mph - N/A   Haze
11:53 AM 41.0 °F 35.2 °F 35.1 °F 79% 29.98 in 8.0 mi ENE 9.2 mph - N/A   Overcast
12:32 PM 42.8 °F 38.0 °F 33.8 °F 70% 29.95 in 9.0 mi East 8.1 mph - N/A   Mostly Cloudy
12:53 PM 42.1 °F 37.1 °F 35.1 °F 76% 29.96 in 8.0 mi ENE 8.1 mph - N/A   Overcast
1:53 PM 41.0 °F 35.8 °F 34.0 °F 76% 29.95 in 8.0 mi East 8.1 mph - N/A   Overcast
2:53 PM 41.0 °F 37.1 °F 34.0 °F 76% 29.95 in 8.0 mi ENE 5.8 mph - N/A   Overcast
4:20 PM 42.8 °F 37.5 °F 33.8 °F 70% 29.92 in 10.0 mi East 9.2 mph - N/A   Overcast
4:53 PM 42.1 °F 36.6 °F 34.0 °F 73% 29.92 in 10.0 mi East 9.2 mph - N/A   Overcast
6:53 PM 41.0 °F 36.4 °F 36.0 °F 82% 29.91 in 5.0 mi East 6.9 mph - N/A   Haze
7:24 PM 41.0 °F 36.4 °F 35.6 °F 81% 29.88 in 8.0 mi East 6.9 mph - N/A   Overcast
7:49 PM 41.0 °F 36.4 °F 37.4 °F 87% 29.89 in 5.0 mi East 6.9 mph - N/A   Overcast
7:53 PM 41.0 °F 35.8 °F 37.0 °F 86% 29.91 in 5.0 mi East 8.1 mph - N/A   Overcast
8:04 PM 41.0 °F 36.4 °F 37.4 °F 87% 29.90 in 5.0 mi East 6.9 mph - N/A   Overcast
8:29 PM 39.2 °F 34.2 °F 37.4 °F 93% 29.90 in 2.5 mi ENE 6.9 mph - 0.01 in Rain Light Rain
8:53 PM 39.9 °F 35.8 °F 37.9 °F 93% 29.92 in 2.0 mi ENE 5.8 mph - 0.03 in Rain Light Rain
9:27 PM 39.2 °F 34.2 °F 37.4 °F 93% 29.88 in 3.0 mi East 6.9 mph - 0.01 in   Overcast
9:53 PM 39.0 °F 32.8 °F 37.0 °F 93% 29.90 in 4.0 mi East 9.2 mph - 0.01 in   Overcast
10:41 PM 39.2 °F 33.0 °F 37.4 °F 93% 29.89 in 2.5 mi East 9.2 mph - N/A   Overcast
10:53 PM 39.0 °F 34.8 °F 37.0 °F 93% 29.90 in 2.5 mi East 5.8 mph - N/A   Overcast
11:14 PM 39.2 °F 35.0 °F 37.4 °F 93% 29.88 in 3.0 mi East 5.8 mph - N/A   Overcast
11:53 PM 39.0 °F 32.8 °F 37.0 °F 93% 29.89 in 4.0 mi East 9.2 mph - N/A   Overcast